Date,TemperatureHighF,TemperatureAvgF,TemperatureLowF,DewpointHighF,DewpointAvgF,DewpointLowF,HumidityHigh,HumidityAvg,HumidityLow,PressureMaxIn,PressureMinIn,WindSpeedMaxMPH,WindSpeedAvgMPH,GustSpeedMaxMPH,PrecipitationSumIn
2013-1-1,19,6,-10,19,3,-12,99,89,72,30.22,29.98,3,0,8,0.00
2013-1-2,21,16,13,21,15,12,99,99,98,30.02,29.90,4,1,9,0.00
2013-1-3,21,13,9,21,12,6,99,93,80,30.19,30.01,8,2,16,0.00
2013-1-4,28,20,11,21,17,10,98,85,72,30.07,29.95,7,1,13,0.00
2013-1-5,23,17,8,18,14,7,98,89,77,30.04,29.80,8,2,14,0.00
2013-1-6,20,14,9,18,12,7,99,90,77,30.16,29.94,8,2,12,0.00
2013-1-7,34,28,19,29,25,18,99,90,80,29.98,29.83,5,1,13,0.00
2013-1-8,34,26,13,33,25,12,99,97,91,29.93,29.72,5,1,12,0.00
2013-1-9,34,30,19,31,26,19,99,86,72,30.31,29.86,13,3,26,0.00
2013-1-10,39,32,19,34,29,19,99,88,64,30.26,29.69,6,2,12,0.25
2013-1-11,40,36,34,40,36,34,99,99,99,29.70,29.34,4,1,8,0.02
2013-1-12,38,15,4,38,12,0,99,86,73,30.03,29.35,7,0,15,0.01
2013-1-13,9,4,1,5,1,-2,90,86,77,30.19,29.98,7,1,16,0.00
2013-1-14,12,7,3,7,4,2,96,89,77,30.34,30.18,8,1,16,0.00
2013-1-15,30,19,3,23,16,2,99,86,72,30.22,29.80,4,1,13,0.00
2013-1-16,37,26,12,36,23,6,99,87,57,30.16,29.61,11,3,18,0.01
2013-1-17,18,12,2,14,6,-2,90,76,59,30.34,30.16,8,1,14,0.00
2013-1-18,42,31,16,36,28,14,99,91,77,30.22,29.68,6,1,11,0.00
2013-1-19,40,24,2,35,20,-3,99,86,65,30.17,29.63,21,6,40,1.35
2013-1-20,62,2,-3,2,-4,-10,86,74,62,30.34,30.17,11,4,20,0.00
2013-1-21,-3,-7,-12,-9,-14,-18,80,71,62,30.28,30.20,11,4,21,0.00
2013-1-22,2,-5,-11,-5,-11,-15,81,75,67,30.33,30.22,7,1,11,0.00
2013-1-23,16,3,-4,11,-7,-15,93,64,54,30.53,30.10,11,4,24,0.00
2013-1-24,13,2,-6,6,-7,-16,73,64,53,30.60,30.11,8,2,14,0.00
2013-1-25,20,13,3,15,7,-1,89,76,63,30.24,29.89,17,4,31,0.02
2013-1-26,24,13,-2,16,6,-5,90,75,60,30.28,30.06,7,2,14,0.00
2013-1-27,32,30,24,32,26,15,99,85,67,30.06,29.74,8,1,14,0.09
2013-1-28,34,32,31,34,32,30,99,99,99,29.85,29.58,6,0,9,0.18
2013-1-29,35,32,28,35,32,27,99,98,92,29.69,29.47,10,2,19,0.04
2013-1-30,28,18,8,27,14,4,94,86,76,29.71,29.57,14,6,24,0.00
2013-1-31,8,0,-9,5,-4,-15,88,79,70,30.21,29.71,13,6,23,0.00
2013-2-1,59,-2,-13,8,-7,-17,99,80,65,30.25,29.98,49,2,49,0.00
2013-2-2,11,6,2,9,4,0,99,90,78,30.11,29.91,5,1,10,0.00
2013-2-3,14,11,5,11,8,2,99,86,73,30.03,29.89,7,1,12,0.00
2013-2-4,17,11,4,12,7,2,99,87,68,30.01,29.71,4,0,9,0.00
2013-2-5,30,22,6,29,20,4,99,92,77,30.02,29.61,10,2,15,0.00
2013-2-6,26,15,1,24,15,0,99,97,92,30.06,29.87,9,1,14,0.00
2013-2-7,27,25,20,26,24,20,99,97,91,30.19,29.91,8,2,15,0.00
2013-2-8,26,23,20,25,21,16,99,90,74,30.32,30.16,8,1,11,0.01
2013-2-9,32,28,25,32,28,24,99,99,97,30.17,29.88,10,3,20,0.00
2013-2-10,34,31,28,34,31,28,99,99,99,29.88,29.21,11,2,17,0.11
2013-2-11,31,25,17,31,23,15,99,93,86,29.99,29.28,14,2,22,0.00
2013-2-12,35,25,15,30,22,14,99,91,80,29.99,29.75,6,1,11,0.17
2013-2-13,41,29,18,34,27,17,99,94,76,29.76,29.51,4,0,8,0.05
2013-2-14,33,27,14,33,23,7,99,86,50,30.12,29.52,13,2,20,0.02
2013-2-15,17,10,4,8,4,1,91,77,61,30.24,30.11,9,3,17,0.01
2013-2-16,15,7,0,10,4,-2,95,87,75,30.20,30.05,4,1,8,0.00
2013-2-17,32,20,2,27,17,1,96,87,76,30.06,29.57,9,2,18,0.00
2013-2-18,31,29,28,29,27,25,99,92,88,29.58,29.48,5,1,11,0.00
2013-2-19,6,2,-4,3,-4,-9,90,76,67,30.29,29.77,11,6,17,0.00
2013-2-20,15,4,-9,6,-2,-12,84,76,67,30.38,30.31,4,1,6,0.00
2013-2-21,20,13,3,15,8,-1,88,80,72,30.35,30.00,7,2,12,0.00
2013-2-22,27,23,18,27,22,16,99,99,85,29.99,29.80,5,2,9,0.09
2013-2-23,26,18,10,26,17,10,99,99,99,29.91,29.80,2,0,8,0.00
2013-2-24,32,18,2,26,16,2,99,93,78,30.04,29.90,4,0,7,0.00
2013-2-25,35,27,15,30,25,15,99,93,80,30.05,29.97,4,0,6,0.00
2013-2-26,36,29,14,31,26,13,99,89,78,29.99,29.80,8,2,16,0.00
2013-2-27,38,32,28,30,28,25,97,86,69,29.97,29.80,12,3,22,0.00
2013-2-28,32,28,24,26,23,19,90,82,77,30.16,29.96,64,2,64,0.00
2013-3-1,30,24,18,21,18,13,84,76,66,30.28,30.15,9,2,14,0.00
2013-3-2,26,18,8,18,11,7,96,74,47,30.29,30.11,5,0,10,0.00
2013-3-3,32,24,12,17,14,8,84,66,50,30.12,29.92,9,2,14,0.00
2013-3-4,26,24,22,24,21,17,99,89,68,29.98,29.88,12,4,18,0.00
2013-3-5,29,25,22,28,25,21,99,98,92,30.24,29.91,7,2,11,0.06
2013-3-6,28,22,9,22,19,8,99,89,75,30.35,30.23,8,2,14,0.02
2013-3-7,29,17,4,23,14,3,99,89,76,30.32,30.22,7,1,11,0.01
2013-3-8,37,27,16,33,25,15,99,93,85,30.26,30.03,7,2,12,0.00
2013-3-9,36,35,33,36,35,32,99,99,93,30.04,29.65,8,2,14,0.77
2013-3-10,35,33,29,34,33,28,99,98,94,29.88,29.71,13,4,23,0.02
2013-3-11,30,27,21,28,25,19,99,93,79,29.80,29.69,9,4,17,0.00
2013-3-12,27,24,19,25,19,13,99,83,61,30.13,29.78,12,4,24,0.01
2013-3-13,30,21,11,21,16,11,99,81,62,30.32,30.13,7,2,12,0.00
2013-3-14,38,29,23,32,27,21,99,91,77,30.20,29.96,7,1,11,0.02
2013-3-15,34,31,26,34,31,26,99,99,99,29.97,29.75,7,1,11,0.01
2013-3-16,26,22,14,26,18,9,99,84,65,30.18,29.83,10,4,15,0.00
2013-3-17,27,18,7,24,11,1,89,72,64,30.20,29.83,10,4,17,0.00
2013-3-18,30,21,11,30,19,8,99,92,78,29.83,29.56,15,6,28,0.02
2013-3-19,21,13,6,9,4,-1,85,70,50,30.14,29.78,13,7,24,0.00
2013-3-20,19,12,5,6,2,-2,74,64,55,30.16,30.06,14,5,24,0.00
2013-3-21,27,16,0,14,7,-3,86,68,54,30.08,29.97,5,1,9,0.00
2013-3-22,33,22,6,19,13,3,90,69,51,30.06,29.98,4,1,102,0.00
2013-3-23,38,29,16,24,20,13,90,70,52,30.11,30.02,4,1,8,0.00
2013-3-24,33,29,26,27,25,22,93,83,69,30.05,29.92,10,2,15,0.00
2013-3-25,38,31,23,23,21,18,83,68,52,30.17,29.97,9,4,16,0.00
2013-3-26,39,29,23,36,23,21,91,77,56,30.25,30.16,49,2,49,0.00
2013-3-27,42,31,17,31,22,17,99,71,48,30.29,30.24,4,0,8,0.00
2013-3-28,41,31,17,31,24,16,99,77,55,30.30,30.22,4,1,10,0.19
2013-3-29,46,36,25,39,33,24,99,88,69,30.24,30.03,6,1,11,0.00
2013-3-30,52,42,35,48,41,34,99,94,83,30.03,29.80,8,2,13,0.06
2013-3-31,39,33,24,35,27,16,99,80,47,30.04,29.76,15,5,27,0.01
2013-4-1,32,25,17,20,16,14,86,69,52,30.21,30.04,11,4,20,0.00
2013-4-2,35,28,18,21,17,14,97,67,44,30.31,30.20,11,2,17,0.00
2013-4-3,45,34,15,35,25,13,94,72,52,30.35,30.02,9,2,14,0.00
2013-4-4,50,43,34,38,32,25,89,67,47,30.12,29.96,9,3,17,0.00
2013-4-5,43,34,27,35,28,20,99,80,54,30.19,29.84,12,2,17,0.09
2013-4-6,58,43,35,50,40,33,99,89,73,29.85,29.45,10,4,20,0.08
2013-4-7,48,41,35,45,39,35,99,93,81,29.91,29.70,8,2,13,0.11
2013-4-8,49,43,39,48,43,39,99,99,97,29.98,29.64,6,2,12,0.11
2013-4-9,42,38,32,40,36,31,99,95,75,30.09,29.90,12,4,22,0.44
2013-4-10,36,33,29,35,31,26,99,92,73,30.14,29.84,10,2,18,0.14
2013-4-11,36,33,30,35,32,27,99,96,71,29.85,29.62,12,2,27,0.25
2013-4-12,35,31,27,34,31,27,99,99,93,29.80,29.62,7,1,12,0.05
2013-4-13,36,32,28,32,29,27,99,89,72,29.92,29.79,7,1,14,0.01
2013-4-14,36,32,29,36,31,27,99,96,82,29.91,29.42,14,2,25,0.32
2013-4-15,40,36,32,34,33,29,99,88,76,29.95,29.51,10,2,18,0.00
2013-4-16,44,37,32,33,31,30,96,79,61,30.27,29.93,8,2,15,0.00
2013-4-17,39,36,33,38,34,30,99,93,83,30.27,29.85,8,3,20,0.32
2013-4-18,35,32,31,35,32,30,99,99,99,29.87,29.46,11,2,20,0.13
2013-4-19,37,32,29,30,28,22,99,89,65,29.95,29.45,14,4,29,0.24
2013-4-20,41,32,19,25,21,17,95,65,43,30.25,29.95,4,1,8,0.00
2013-4-21,51,41,33,50,39,23,99,94,64,30.26,29.98,11,3,20,0.35
2013-4-22,41,36,32,40,36,31,99,97,84,30.16,30.05,8,2,13,0.13
2013-4-23,41,34,29,33,29,23,99,84,55,30.11,30.01,8,2,17,0.14
2013-4-24,49,37,24,38,32,23,99,83,58,30.04,29.86,8,1,14,0.00
2013-4-25,51,41,32,38,34,29,99,80,51,30.18,29.95,10,2,20,0.01
2013-4-26,71,57,42,54,45,35,95,67,42,30.10,29.94,7,2,14,0.02
2013-4-27,76,59,38,55,48,36,95,68,43,30.10,29.88,7,1,10,0.00
2013-4-28,80,64,51,60,54,49,99,74,44,29.88,29.62,11,2,18,0.11
2013-4-29,76,62,51,63,55,43,99,79,58,29.78,29.53,8,2,13,0.01
2013-4-30,72,64,58,67,52,34,99,70,35,29.94,29.41,11,3,20,0.00
2013-5-1,58,40,33,45,37,33,99,92,53,30.44,29.93,10,3,19,0.59
2013-5-2,46,38,33,36,32,29,99,82,54,30.49,30.35,11,2,19,0.26
2013-5-3,39,34,31,35,32,28,99,92,70,30.36,30.09,9,3,18,0.15
2013-5-4,51,41,33,48,40,33,99,97,86,30.13,30.05,7,2,13,0.06
2013-5-5,68,51,39,55,46,39,99,86,63,30.13,30.03,6,2,11,0.00
2013-5-6,75,61,44,57,52,44,99,76,50,30.08,29.97,4,1,8,0.00
2013-5-7,78,66,49,60,54,48,99,70,40,30.04,29.93,4,1,11,0.00
2013-5-8,79,64,52,62,56,51,99,81,47,29.99,29.89,5,1,104,0.28
2013-5-9,59,54,45,59,53,34,99,96,68,30.05,29.91,11,3,21,0.09
2013-5-10,68,52,38,46,34,30,78,55,30,30.06,29.85,7,1,11,0.00
2013-5-11,56,48,42,48,31,22,86,55,35,30.14,29.84,18,7,29,0.04
2013-5-12,59,46,34,29,25,20,72,47,26,30.19,30.05,11,3,18,0.00
2013-5-13,74,55,33,53,40,26,82,59,38,30.08,29.63,9,2,25,0.00
2013-5-14,98,77,51,69,54,36,91,50,23,29.67,29.42,17,4,31,0.00
2013-5-15,81,67,55,57,52,48,77,61,45,29.90,29.65,11,2,19,0.00
2013-5-16,82,72,61,57,50,40,65,49,36,29.89,29.81,9,2,17,0.00
2013-5-17,68,57,54,59,54,40,99,92,39,29.97,29.85,10,4,17,0.41
2013-5-18,81,66,55,76,64,55,99,94,77,30.00,29.76,8,2,14,1.33
2013-5-19,82,69,63,76,68,62,99,97,80,29.78,29.51,11,2,20,1.05
2013-5-20,74,66,59,70,65,58,99,95,78,29.59,29.47,5,2,16,0.45
2013-5-21,68,60,53,66,59,53,99,97,83,29.67,29.49,4,1,8,0.01
2013-5-22,53,50,47,53,50,47,99,99,94,29.94,29.65,10,2,17,0.27
2013-5-23,65,55,45,51,43,35,99,68,43,30.31,29.93,8,3,14,0.00
2013-5-24,70,55,34,56,46,33,99,74,52,30.35,30.14,8,1,15,0.14
2013-5-25,61,55,52,55,53,48,99,92,77,30.23,30.18,8,2,16,0.09
2013-5-26,57,54,50,56,50,45,99,89,75,30.19,30.00,12,4,21,0.00
2013-5-27,59,56,53,58,55,52,99,99,96,30.01,29.80,11,3,18,0.12
2013-5-28,60,56,52,60,56,52,99,99,99,29.82,29.69,7,2,12,0.12
2013-5-29,75,64,53,75,64,53,99,99,99,29.79,29.62,7,1,14,0.24
2013-5-30,78,70,64,74,68,63,99,96,82,29.67,29.50,8,1,15,0.46
2013-5-31,80,69,61,72,65,61,99,88,57,29.55,29.49,8,2,23,0.12
2013-6-1,73,60,52,68,59,49,99,95,83,29.91,29.53,12,2,22,0.22
2013-6-2,68,57,49,50,47,45,93,73,51,30.05,29.91,10,2,17,0.00
2013-6-3,70,60,44,56,50,43,99,73,52,30.04,29.90,8,1,14,0.00
2013-6-4,63,59,55,60,56,53,99,90,72,30.05,29.96,8,2,14,0.02
2013-6-5,63,57,54,63,57,54,99,99,99,30.03,29.89,7,1,10,0.28
2013-6-6,57,54,51,56,54,51,99,99,99,30.00,29.92,6,1,10,0.00
2013-6-7,68,59,53,60,57,53,99,92,75,30.02,29.89,5,0,8,0.00
2013-6-8,72,64,55,64,60,55,99,88,71,29.90,29.85,6,1,11,0.00
2013-6-9,69,61,57,68,61,56,99,99,99,29.88,29.73,11,3,20,0.57
2013-6-10,78,66,58,72,65,58,99,96,80,29.84,29.77,4,0,8,0.00
2013-6-11,81,68,55,77,67,54,99,98,87,29.88,29.77,4,0,8,0.01
2013-6-12,72,68,63,72,67,61,99,98,81,29.89,29.75,7,2,17,1.49
2013-6-13,78,69,59,65,61,56,99,76,59,30.07,29.88,8,2,14,0.00
2013-6-14,80,70,55,70,65,55,99,84,70,30.06,29.85,7,1,15,0.05
2013-6-15,78,70,63,77,69,62,99,98,84,29.91,29.82,8,1,17,0.25
2013-6-16,86,71,57,67,62,57,99,78,43,29.91,29.82,21,1,33,0.13
2013-6-17,82,72,62,67,63,60,99,75,53,29.98,29.85,8,1,14,0.01
2013-6-18,76,66,58,67,62,57,99,88,69,30.06,29.97,7,1,12,0.00
2013-6-19,86,81,73,70,67,65,80,64,55,29.96,29.91,4,0,8,0.09
2013-6-20,91,81,70,78,72,66,93,76,59,29.98,29.85,5,1,14,0.00
2013-6-21,81,73,65,78,71,65,99,94,75,30.03,29.75,21,1,36,0.54
2013-6-22,82,73,65,80,72,65,99,98,93,30.00,29.81,7,1,15,0.56
2013-6-23,85,75,68,79,73,68,99,94,76,29.88,29.68,6,1,15,0.25
2013-6-24,83,73,63,81,72,63,99,98,88,29.89,29.78,5,0,13,0.05
2013-6-25,86,78,65,84,77,65,99,97,91,29.81,29.69,8,2,12,0.00
2013-6-26,87,79,71,85,76,71,99,91,70,29.81,29.63,9,1,17,0.00
2013-6-27,86,78,68,75,69,63,99,77,50,29.82,29.77,11,2,23,0.00
2013-6-28,78,71,66,70,67,64,99,85,73,29.80,29.73,14,4,25,0.13
2013-6-29,76,69,62,69,64,60,99,86,59,29.95,29.72,7,2,16,0.20
2013-6-30,82,70,57,64,60,54,99,73,48,30.09,29.95,9,1,15,0.00
2013-7-1,84,74,60,69,64,59,99,74,52,30.16,30.08,6,1,12,0.00
2013-7-2,82,73,60,65,61,57,94,70,53,30.13,30.02,7,1,12,0.00
2013-7-3,87,72,56,71,62,56,99,76,47,30.05,29.93,6,0,13,0.00
2013-7-4,89,76,61,74,67,61,99,75,51,29.96,29.85,5,1,11,0.00
2013-7-5,88,78,68,76,70,65,94,77,63,29.90,29.80,5,1,13,0.01
2013-7-6,91,81,72,79,73,68,92,76,63,29.88,29.79,4,1,12,0.00
2013-7-7,92,83,74,81,77,72,99,83,64,29.86,29.78,4,1,11,0.00
2013-7-8,90,79,69,79,75,69,99,90,68,29.97,29.85,4,1,8,0.00
2013-7-9,85,78,69,80,76,69,99,94,83,29.93,29.73,11,2,17,0.60
2013-7-10,80,72,63,73,65,59,99,79,54,30.03,29.89,11,3,18,0.00
2013-7-11,86,74,59,73,66,58,99,78,54,30.09,29.96,5,0,10,0.00
2013-7-12,88,78,68,75,69,64,91,75,61,30.01,29.90,7,1,15,0.00
2013-7-13,78,72,63,77,69,53,99,92,73,30.55,29.91,7,2,19,18.44
2013-7-14,86,77,68,78,73,68,99,89,71,30.26,30.04,5,1,11,0.00
2013-7-15,88,78,65,80,74,64,99,89,70,30.63,30.19,4,0,10,0.00
2013-7-16,93,85,72,85,80,72,99,87,71,30.63,30.28,3,0,11,0.00
2013-7-17,94,84,72,84,79,72,99,88,70,30.38,30.23,5,0,10,0.00
2013-7-18,93,85,75,85,80,75,99,87,71,30.23,29.88,6,1,12,0.00
2013-7-19,84,79,72,80,73,67,99,82,63,30.06,29.82,9,2,21,0.27
2013-7-20,80,73,66,75,69,64,99,88,75,30.15,29.69,6,1,11,0.00
2013-7-21,80,70,59,78,68,59,99,94,86,30.08,29.87,7,2,13,0.06
2013-7-22,86,75,66,84,72,63,99,89,69,29.95,29.69,11,2,18,0.00
2013-7-23,76,69,60,64,61,59,99,78,61,30.29,29.91,8,2,17,0.00
2013-7-24,79,66,56,70,64,56,99,92,72,30.26,29.96,2,0,6,0.00
2013-7-25,82,72,60,77,70,60,99,93,74,29.99,29.89,5,0,11,0.02
2013-7-26,69,64,58,68,61,53,99,90,71,30.10,29.88,13,3,24,0.30
2013-7-27,62,57,52,58,54,50,99,90,71,30.09,29.96,14,3,24,0.04
2013-7-28,74,61,52,62,56,51,99,86,65,30.37,29.93,8,2,14,0.00
2013-7-29,77,66,50,68,61,50,99,85,63,30.24,30.12,4,0,8,0.00
2013-7-30,73,67,62,73,67,62,99,98,91,30.12,30.06,4,0,10,0.06
2013-7-31,78,69,62,74,66,60,99,91,69,30.10,29.99,7,1,17,0.06
2013-8-1,84,70,54,71,63,54,99,82,61,30.08,29.88,4,0,9,0.00
2013-8-2,77,69,60,67,62,58,99,81,56,30.09,29.84,8,1,11,0.00
2013-8-3,78,68,55,66,60,55,99,79,53,30.23,30.06,7,1,11,0.00
2013-8-4,74,65,52,66,61,52,99,88,71,30.21,30.00,4,0,7,0.00
2013-8-5,81,68,60,78,68,59,99,98,89,30.02,29.80,4,0,9,0.57
2013-8-6,85,70,58,78,68,58,99,94,74,29.87,29.75,16,1,27,0.06
2013-8-7,77,67,59,66,62,58,99,85,56,30.02,29.86,6,2,13,0.00
2013-8-8,75,65,54,68,63,53,99,92,73,30.03,29.88,4,0,8,0.01
2013-8-9,74,66,59,68,61,58,99,84,63,30.04,29.88,11,2,18,0.00
2013-8-10,76,68,60,66,62,57,99,84,62,30.16,29.98,5,0,9,0.00
2013-8-11,78,69,63,74,68,63,99,96,82,30.06,29.92,6,0,9,0.00
2013-8-12,78,70,63,69,64,60,99,85,59,30.04,29.93,8,1,14,0.00
2013-8-13,74,65,55,63,58,54,99,80,53,30.15,30.00,6,1,11,0.00
2013-8-14,77,70,52,62,59,52,99,71,57,30.15,29.98,7,0,11,0.00
2013-8-15,78,66,52,70,61,52,99,85,60,30.09,29.94,4,0,8,0.00
2013-8-16,80,69,56,70,63,56,99,84,60,30.21,30.07,4,0,7,0.00
2013-8-17,81,69,54,70,63,54,99,83,60,30.13,30.05,4,0,11,0.00
2013-8-18,82,71,57,72,65,57,99,85,63,30.09,29.89,5,0,11,0.00
2013-8-19,86,74,64,79,72,64,99,93,75,29.92,29.80,4,0,9,0.00
2013-8-20,89,79,69,83,77,69,99,94,82,29.84,29.77,5,1,14,0.00
2013-8-21,84,77,71,84,77,71,99,99,96,30.03,29.69,4,0,9,0.32
2013-8-22,84,76,65,74,68,60,99,79,57,30.08,29.92,8,1,14,0.00
2013-8-23,85,73,57,78,70,57,99,91,75,30.12,29.99,7,0,10,0.00
2013-8-24,88,79,69,84,77,69,99,95,83,30.09,29.89,6,2,17,0.00
2013-8-25,93,85,77,86,82,77,99,92,79,29.93,29.83,4,1,11,0.00
2013-8-26,93,85,78,88,83,78,99,93,80,29.94,29.78,4,1,11,0.00
2013-8-27,92,84,75,88,82,74,99,94,82,30.01,29.70,5,1,9,0.00
2013-8-28,89,80,70,85,78,69,99,95,75,30.10,29.93,8,1,14,0.00
2013-8-29,93,82,74,87,79,74,99,91,69,30.03,29.89,4,1,11,0.00
2013-8-30,84,77,72,78,75,70,99,92,77,29.99,29.84,8,2,16,0.00
2013-8-31,86,75,63,80,72,63,99,93,76,29.96,29.75,11,1,19,0.07
2013-9-1,73,69,64,71,67,61,99,93,80,30.03,29.72,10,3,17,0.00
2013-9-2,66,59,52,61,58,51,99,94,81,30.21,29.94,7,1,11,0.00
2013-9-3,76,61,46,66,58,46,99,91,69,30.15,29.95,4,0,7,0.00
2013-9-4,86,72,56,79,68,56,99,90,71,30.20,30.00,4,1,10,0.00
2013-9-5,82,72,61,76,69,61,99,92,77,30.23,30.12,7,2,14,0.00
2013-9-6,89,77,68,79,73,68,99,88,66,30.12,29.93,4,1,11,0.02
2013-9-7,91,79,70,82,76,70,99,90,62,30.46,29.86,8,1,17,0.00
2013-9-8,79,71,66,75,70,66,99,96,86,30.47,30.36,8,3,27,0.00
2013-9-9,92,79,69,84,76,69,99,92,73,30.37,30.09,5,1,13,0.05
2013-9-10,81,74,68,78,73,68,99,94,81,30.47,30.22,4,1,11,0.00
2013-9-11,83,73,62,73,66,58,99,80,53,30.53,30.42,9,2,19,0.00
2013-9-12,73,65,56,62,56,50,99,75,54,30.65,30.51,10,2,17,0.00
2013-9-13,67,55,44,56,51,44,99,87,59,30.75,30.50,3,0,6,0.00
2013-9-14,74,63,46,62,56,46,99,82,58,30.57,30.34,5,1,10,0.51
2013-9-15,68,59,51,64,58,51,99,97,89,30.74,30.34,8,2,16,0.39
2013-9-16,66,54,43,56,49,42,99,87,61,30.91,30.71,7,1,11,0.00
2013-9-17,68,55,43,63,54,43,99,96,82,30.78,30.45,6,1,18,0.00
2013-9-18,74,68,60,74,67,59,99,99,99,30.45,30.13,4,1,10,0.07
2013-9-19,79,71,65,78,71,64,99,99,92,30.32,30.06,14,1,23,0.18
2013-9-20,65,62,62,64,61,61,99,97,97,30.32,30.30,6,3,11,0.00
2013-9-21,62,62,62,61,61,61,97,97,97,30.32,30.32,3,3,11,0.00
2013-9-22,74,65,59,64,61,53,99,89,72,30.32,29.73,9,2,14,17.69
2013-9-23,73,62,51,63,58,51,99,88,65,29.95,29.80,6,1,16,0.00
2013-9-24,74,60,48,64,56,47,99,88,66,29.96,29.83,9,1,14,0.00
2013-9-25,73,60,46,64,56,46,99,88,65,29.99,29.78,7,1,12,0.00
2013-9-26,81,67,52,70,63,52,99,88,69,30.04,29.72,7,2,21,0.00
2013-9-27,84,73,64,73,68,64,99,88,68,29.87,29.72,9,2,18,0.00
2013-9-28,70,61,46,68,60,45,99,97,89,29.88,29.51,10,2,20,0.13
2013-9-29,75,60,44,59,52,44,99,79,52,29.95,29.73,5,1,14,0.01
2013-9-30,78,66,56,64,58,53,93,76,60,29.75,29.51,6,2,15,0.00
2013-10-1,74,65,47,60,53,44,96,68,37,29.93,29.51,10,2,18,0.00
2013-10-2,76,60,41,61,50,41,99,77,42,30.06,29.70,13,1,19,0.22
2013-10-3,61,58,56,60,58,56,99,99,99,29.85,29.73,8,2,14,0.13
2013-10-4,58,57,56,58,57,55,99,99,99,29.95,29.67,11,3,21,0.32
2013-10-5,61,55,41,60,54,41,99,98,87,29.78,29.61,12,1,22,0.05
2013-10-6,55,48,40,55,47,40,99,99,99,29.86,29.65,10,1,16,0.04
2013-10-7,65,52,44,55,48,43,99,88,59,30.03,29.85,5,1,11,0.00
2013-10-8,76,60,42,60,52,42,99,78,54,30.02,29.85,7,1,17,0.00
2013-10-9,74,63,53,63,57,6,99,82,62,30.06,29.93,5,1,24,48.38
2013-10-10,77,61,42,64,55,42,99,84,58,30.04,29.86,98,1,98,0.00
2013-10-11,75,65,54,68,61,54,99,88,67,29.88,29.55,12,3,22,0.12
2013-10-12,58,51,43,58,48,42,99,88,60,30.18,29.66,11,1,21,0.01
2013-10-13,58,47,35,47,41,35,99,84,55,30.43,30.18,5,0,11,0.00
2013-10-14,54,46,35,52,44,35,99,91,69,30.42,29.82,11,2,17,0.33
2013-10-15,54,50,47,53,50,46,99,99,99,29.88,29.65,9,2,18,0.50
2013-10-16,52,45,34,47,44,34,99,95,76,29.93,29.75,8,2,14,0.01
2013-10-17,59,46,34,50,43,34,99,92,64,29.83,29.70,8,1,15,0.04
2013-10-18,51,43,36,44,39,35,99,86,57,29.92,29.78,8,2,15,0.04
2013-10-19,46,39,33,44,38,33,99,97,86,29.79,29.60,10,1,16,0.00
2013-10-20,49,38,28,46,37,28,99,98,84,29.88,29.62,9,2,17,0.04
2013-10-21,39,34,28,38,28,24,99,78,64,30.02,29.88,10,2,17,0.00
2013-10-22,39,33,24,36,31,23,99,93,80,30.09,30.00,5,1,9,0.00
2013-10-23,37,34,32,35,30,24,99,84,67,30.08,29.98,9,2,16,0.00
2013-10-24,43,36,32,34,30,24,99,79,66,30.25,30.05,8,2,14,0.00
2013-10-25,57,42,25,46,37,25,99,84,66,30.25,29.73,7,1,16,0.00
2013-10-26,52,43,34,46,35,30,87,75,62,30.11,29.74,13,4,22,0.00
2013-10-27,57,42,28,40,35,28,99,78,53,30.12,29.79,8,0,17,0.00
2013-10-28,42,37,32,35,29,24,96,75,56,30.44,30.11,9,2,17,0.00
2013-10-29,42,38,31,40,33,24,99,84,73,30.43,30.08,7,1,14,0.02
2013-10-30,50,45,39,50,45,39,99,99,99,30.08,29.66,49,1,49,0.08
2013-10-31,50,43,40,50,42,40,99,99,99,29.67,29.45,6,2,13,0.01
2013-11-1,50,43,36,45,41,36,99,92,77,29.89,29.60,8,2,14,0.00
2013-11-2,48,39,30,41,36,29,99,89,65,30.08,29.80,9,2,17,0.00
2013-11-3,54,43,30,43,37,30,99,82,58,30.10,29.90,15,3,26,0.00
2013-11-4,48,43,31,47,41,30,99,93,74,30.22,29.85,11,2,25,0.14
2013-11-5,44,34,25,41,33,25,99,94,74,30.30,30.00,7,1,12,0.04
2013-11-6,36,33,29,33,31,29,99,93,76,30.21,30.01,7,1,14,0.13
2013-11-7,34,30,25,34,30,24,99,99,99,30.25,30.16,7,1,14,0.00
2013-11-8,46,35,20,46,32,20,99,89,66,30.20,29.54,11,2,19,0.00
2013-11-9,46,41,35,46,38,29,99,87,70,30.22,29.58,15,6,29,0.01
2013-11-10,42,38,32,36,33,29,92,84,76,30.33,30.03,11,1,20,0.00
2013-11-11,38,25,15,36,18,10,99,75,57,30.73,30.08,11,4,20,0.00
2013-11-12,26,18,10,17,12,9,96,79,57,30.80,30.44,8,1,11,0.00
2013-11-13,49,36,21,40,28,16,84,74,63,30.44,29.88,4,0,13,0.00
2013-11-14,49,40,33,43,37,31,99,92,79,29.89,29.75,3,0,5,0.00
2013-11-15,54,41,26,47,38,26,99,90,70,29.85,29.65,5,0,11,0.00
2013-11-16,50,44,38,50,44,38,99,99,90,29.66,29.21,6,1,11,0.12
2013-11-17,52,39,32,43,38,30,99,98,92,29.90,29.30,17,5,29,0.11
2013-11-18,34,29,19,30,26,19,99,87,72,30.26,29.90,18,5,28,0.00
2013-11-19,46,34,18,37,29,17,99,86,68,30.27,29.92,10,3,21,0.00
2013-11-20,44,41,37,38,35,32,99,82,66,30.01,29.88,8,2,17,0.00
2013-11-21,37,31,24,37,30,20,99,98,84,30.48,30.01,11,4,18,0.01
2013-11-22,30,22,13,20,16,6,99,77,52,30.53,30.40,14,3,26,0.00
2013-11-23,16,11,6,8,4,2,93,76,53,30.72,30.49,13,3,18,0.00
2013-11-24,29,18,3,20,11,1,93,77,63,30.63,30.02,7,2,20,0.00
2013-11-25,39,33,26,33,27,20,93,79,68,30.11,29.94,13,3,22,0.00
2013-11-26,31,20,13,25,10,4,81,65,53,30.36,30.10,17,7,29,0.00
2013-11-27,24,17,7,14,10,4,94,75,60,30.35,29.94,5,0,9,0.00
2013-11-28,27,21,10,18,15,8,92,76,66,30.58,29.93,9,2,16,0.00
2013-11-29,33,22,7,25,18,6,97,84,64,30.54,29.93,8,1,15,0.00
2013-11-30,37,31,21,31,28,21,99,88,79,30.09,29.82,4,0,9,0.00
2013-12-1,34,27,18,31,26,18,99,94,85,30.15,29.93,2,0,4,0.00
2013-12-2,38,32,24,37,32,24,99,99,96,29.93,29.46,8,2,13,0.11
2013-12-3,35,34,32,35,34,32,99,99,99,29.72,29.43,5,2,10,0.09
2013-12-4,32,28,12,32,28,11,99,99,99,29.74,29.40,0,0,97,0.00
2013-12-5,12,5,-1,11,3,-3,99,94,86,30.35,29.73,0,0,0,0.00
2013-12-6,0,-4,-8,-3,-6,-10,94,90,84,30.62,30.21,0,0,0,0.00
2013-12-7,-1,-6,-12,-4,-9,-14,94,88,77,30.68,30.45,0,0,0,0.00
2013-12-8,12,7,-2,12,6,-4,99,98,93,30.58,29.98,0,0,0,0.00
2013-12-9,11,-1,-7,11,-2,-9,99,92,81,30.32,29.82,0,0,0,0.00
2013-12-10,15,8,2,15,6,-1,99,91,81,30.22,29.64,0,0,0,0.00
2013-12-11,7,-4,-9,5,-8,-12,89,82,73,30.58,30.21,0,0,0,0.00
2013-12-12,18,12,0,15,10,-2,98,91,82,30.31,30.04,4,0,9,0.00
2013-12-13,15,13,11,14,12,10,99,95,89,30.22,29.95,10,3,14,0.00
2013-12-14,15,9,-1,13,8,-3,99,95,88,30.24,30.03,11,2,21,0.00
2013-12-15,4,1,-2,-2,-3,-5,90,81,71,30.22,29.92,8,2,14,0.00
2013-12-16,24,10,0,24,9,-6,99,93,77,30.20,29.88,5,1,14,0.00
2013-12-17,32,23,5,31,20,4,99,90,74,30.16,29.79,16,5,26,0.02
2013-12-18,37,24,4,33,22,3,99,94,84,30.13,29.56,5,1,13,0.05
2013-12-19,29,19,16,28,18,14,99,94,86,30.09,29.77,7,2,14,0.00
2013-12-20,19,18,16,18,17,16,99,98,95,30.02,29.87,5,1,11,0.00
2013-12-21,23,19,16,21,18,15,99,97,91,30.05,29.90,6,1,11,0.00
2013-12-22,19,13,2,18,13,0,99,98,94,30.29,29.86,11,4,15,0.00
2013-12-23,2,-3,-9,1,-6,-11,96,87,78,30.59,30.29,9,3,17,0.00
2013-12-24,10,-1,-15,8,-4,-18,99,86,63,30.51,30.25,8,1,13,0.00
2013-12-25,28,17,9,28,16,8,99,95,76,30.32,30.14,11,2,22,0.00
2013-12-26,24,18,7,24,18,6,99,99,96,30.26,30.12,3,0,4,0.00
2013-12-27,39,28,8,36,27,8,99,96,86,30.22,29.95,5,1,11,0.05
2013-12-28,45,31,19,38,29,19,99,94,76,29.99,29.64,16,2,26,0.00
2013-12-29,21,0,-13,21,-6,-19,99,77,59,30.42,29.95,13,5,23,0.00
2013-12-30,0,-6,-15,-1,-9,-20,95,88,75,30.41,30.01,4,0,8,0.00
2013-12-31,0,-6,-10,-4,-9,-14,97,87,79,30.34,30.04,4,0,8,0.00
2014-1-1,2,-3,-9,-4,-8,-14,84,78,73,30.53,30.16,6,1,9,0.00
2014-1-2,3,-5,-14,-6,-12,-19,79,69,57,30.42,30.24,4,0,8,0.00